Flag for Germany Weather past 2 weeks in Emden, Lower Saxony, Germany

Now
61 °F

Passing clouds.


Feels Like: 61 °F
Forecast: 59 / 73 °F
Wind: 2 mph from West

Location: Emden-Koenigspolder

Current Time: Jul 31, 2014 at 12:24:08 AM

Latest Report: Jul 31, 2014 at 12:00 AM


Visibility: 13 mi

Pressure: 29.93 "Hg

Humidity: 84%

Dew point: 56 °F

Location of EmdenLocation

Historic Weather in Emden — Graph

°F

Emden temperature yesterday

Maximum temperature yesterday: 73 °F (at 2:00 PM)
Minimum temperature yesterday: 62 °F (at 6:00 AM)
Average temperature yesterday: 67 °F

Past Weeks' High & Low Weather Summary

 TemperatureHumidityPressure
High91 °F (Jul 19, 5:00 PM)99% (Jul 18, 6:00 AM)30.18 "Hg (Jul 18, 6:00 AM)
Low56 °F (Jul 17, 2:00 AM)31% (Jul 19, 5:00 PM)29.77 "Hg (Jul 20, 6:00 PM)
Average70 °F76%29.98 "Hg
* Reported Jul 15 10:00 PM — Jul 30 10:00 PM, Emden, Weather by CustomWeather, © 2014

Note: Actual official high and low records may vary slightly from our data, if they occured in-between our weather recording intervals... More about our weather records

Advertising

Emden weather history for previous 24 hours

 ConditionsComfort  
Time TempWeatherWind HumidityBarometerVisibility
10:00 PM
Jul 30
64 °FOvercast.3 mph76%29.92 "Hg14 mi
9:00 PM66 °FPassing clouds.5 mph72%29.91 "Hg28 mi
7:00 PM69 °FPartly sunny.7 mph68%29.89 "Hg12 mi
6:00 PM69 °FOvercast.8 mph67%29.88 "Hg7 mi
5:00 PM73 °FOvercast.7 mph58%29.87 "Hg4 mi
4:00 PM72 °FScattered clouds.5 mph61%29.87 "Hg7 mi
3:00 PM72 °FOvercast.6 mph60%29.88 "Hg6 mi
2:00 PM73 °FPartly sunny.6 mph55%29.87 "Hg4 mi
1:00 PM71 °FPartly sunny.7 mph61%29.87 "Hg6 mi
12:00 PM71 °FPartly sunny.6 mph57%29.86 "Hg4 mi
11:00 AM70 °FPassing clouds.7 mph63%29.85 "Hg10 mi
10:00 AM70 °FScattered clouds.6 mph69%29.85 "Hg5 mi
9:00 AM68 °FPassing clouds.5 mph74%29.84 "Hg2 mi
8:00 AM65 °FFog.3 mph80%29.83 "Hg4 mi
7:00 AM63 °FScattered clouds.2 mph84%29.83 "Hg12 mi
6:00 AM62 °FPartly sunny.3 mph86%29.83 "Hg19 mi
4:00 AM62 °FOvercast.3 mph89%29.83 "Hg19 mi
3:00 AM63 °FOvercast.3 mph87%29.83 "Hg19 mi
2:00 AM64 °FOvercast.3 mph88%29.83 "Hg19 mi
1:00 AM64 °FOvercast.3 mph88%29.84 "Hg19 mi
12:00 AM65 °FOvercast.5 mph87%29.85 "Hg17 mi
Weather by CustomWeather, © 2014

See weather overviewHow to use our weather pages